Regional Weather Roundup
Issued by NWS Jackson, KY

Home | Current Version | Previous Version | Text Only | Print | Product List | Glossary On
Versions: 1 2 3 4 5 6 7 8 9 10 11 12 13 14 15 16 17 18 19 20 21 22 23 24 25 26 27
000
ASUS43 KJKL 190610
RWRJKL

EAST KENTUCKY HOURLY WEATHER ROUNDUP
NATIONAL WEATHER SERVICE JACKSON KY
200 AM EDT SAT AUG 19 2017

NOTE: "FAIR" INDICATES FEW OR NO CLOUDS BELOW 12,000 FEET WITH
NO SIGNIFICANT WEATHER AND/OR OBSTRUCTIONS TO VISIBILITY.

* THESE REPORTS ARE NOT UNDER NWS QUALITY CONTROL AND MAY NOT
  REPORT WEATHER SUCH AS PRECIPITATION AND FOG.

KYZ079-080-083-085-087-088-110-112-115-119-120-190700
...EASTERN KENTUCKY...

CITY           SKY/WX    TMP DP  RH WIND       PRES   REMARKS
JACKSON        CLEAR     68  64  87 CALM      30.00F
6HR MIN TEMP:  68; 6HR MAX TEMP:  77;

LONDON         CLEAR     66  64  93 S5        30.00F FOG
6HR MIN TEMP:  66; 6HR MAX TEMP:  79;

SOMERSET*      CLEAR     64  64 100 CALM      30.01S
MONTICELLO*    CLEAR     64  63  96 W12       30.01F FOG
6HR MIN TEMP:  63; 6HR MAX TEMP:  77; 6HR PCP:  0.02;

WILLIAMSBURG*  CLEAR     64  64 100 CALM      30.00F
MIDDLESBORO*   CLEAR     64  64 100 CALM      30.03S
6HR MIN TEMP:  64; 6HR MAX TEMP:  76;

HARLAN APT*    CLOUDY    64  63  94 CALM      30.04S VSB 1/2
PIKE CO APT*     N/A     69  67  96 CALM      30.01F
BIG SANDY APT* CLEAR     69  66  91 SW3       30.00S
6HR MIN TEMP:  69; 6HR MAX TEMP:  78;

MOREHEAD APT*  CLEAR     72  63  73 SW6       30.00S
$$

KYZ035-036-041-042-044-050-067-078-099-190700
...CENTRAL KENTUCKY...

CITY           SKY/WX    TMP DP  RH WIND       PRES   REMARKS
MT STERLING*   CLEAR     64  64 100 W3        30.00S
FLEMING/MASON* CLEAR     67  63  88 W3        29.98F
DANVILLE*      CLEAR     63  63 100 CALM      30.00S
LEXINGTON      CLEAR     68  63  84 CALM      29.99R
6HR MIN TEMP:  68; 6HR MAX TEMP:  79;

FRANKFORT      CLEAR     67  63  87 CALM      29.97R
6HR MIN TEMP:  67; 6HR MAX TEMP:  81;

LOUISVILLE     CLOUDY    75  66  73 CALM      29.95S
6HR MIN TEMP:  74; 6HR MAX TEMP:  83;

LEBANON*         N/A     70  64  83 S3        29.98S
GLASGOW*       CLEAR    N/A N/A N/A CALM      29.98S HAZE
BOWLING GREEN  CLOUDY    72  68  87 CALM      29.98R
6HR MIN TEMP:  71; 6HR MAX TEMP:  83;

$$

KYZ091>093-OHZ055-061-077-WVZ005-015-034-035-042-190700
...SOUTHERN OHIO/WEST VIRGINIA...

CITY           SKY/WX    TMP DP  RH WIND       PRES   REMARKS
COVINGTON      CLEAR     71  66  84 W3        29.96S
COLUMBUS       PTCLDY    70  65  84 W3        29.93S
DAYTON         CLEAR     65  62  90 W7        29.96S
WILMINGTON     CLEAR     67  65  93 W6        29.95S
HUNTINGTON     CLEAR     69  66  90 SW3       29.96S
CHARLESTON     MOCLDY    68  66  93 CALM      29.97F
PINEVILLE*     FOG       67  66  97 MISG      30.08S VSB 1/4
BECKLEY        PTCLDY    66  63  90 S3        30.06S
BLUEFIELD      PTCLDY    64  63  96 W5        30.09S
LOGAN CO APT*  FOG       68  66  94 CALM      30.01S VSB 1/4
$$

VAZ002-007-008-TNZ017-027-036-066-071-190700
...SOUTHWEST VIRGINIA/EAST TENNESSEE...

CITY           SKY/WX    TMP DP  RH WIND       PRES   REMARKS
WISE*          CLEAR     64  64 100 CALM      30.09F
JONESVILLE*      N/A     64  63  94 CALM      30.05S
ABINGDON*      PTCLDY    68  66  96 CALM      30.06S
BRISTOL        PTCLDY    66  65  96 CALM      30.03S
MORRISTOWN*    PTCLDY    66  66 100 CALM      30.01F
SEVIERVILLE*   PTCLDY    68  64  88 CALM      30.00F
KNOXVILLE      CLEAR     70  65  84 CALM      30.00F
LAFOLLETTE*    CLEAR     66  64  94 CALM      30.04F
OAK RIDGE      CLEAR     69  66  90 CALM      30.01F
CROSSVILLE     CLEAR     63  62  97 CALM      30.05S
NASHVILLE      CLEAR     70  67  90 S3        29.99F
$$

...KEY TO REMARKS...
VSB - VISIBILITY IN MILES
WCI - WIND CHILL INDEX
HX  - HEAT INDEX

$$




USA.gov is the U.S. government's official web portal to all federal, state and local government web resources and services.